Disclaimer

Please do not use the information listed here in-flight or in-navigation, as they are not provided to us by the airports but are provided by volunteers, so they might be outdated.

Search


Regions


Airport information page

Radio informations:
Tower (TWR) - 134.5 MHz
Approach (APP) - 121.9 MHz

Airport informations:
Latitude: 48° 38' 03.40" N
Longitude: 022° 15' 48.08" E
Elevation: 383 feet - 117 meters
Operating hours: Remarks
Operating agency: Civil government, landing fees and diplomatic clearance may be required
Timezone: UTC+2(+3DT)
Fuel: N/A

Runway information:
10/28 - 6686 x 131 feet< - >2038 x 40 meters

Recent METARs:
UKLU 221600Z 32002MPS 9999 BKN025 M05/M08 Q1012 R10/493029 NOSIG
UKLU 221600Z 32002MPS 9999 BKN025 M05/M08 Q1012 R10/493029 NOSIG
UKLU 221600Z 32002MPS 9999 BKN025 M05/M08 Q1012 R10/493029 NOSIG

Airport on the map: